User: anonymous   Login
Location: Anjeux
(47.8815°N, 6.2076°E)
Time: 20:59:11
(UTC+00:00)
Language:

HuskySat-1 - Orbit

View from above orbital plane
View from above orbital plane
View from above satellite
View from above satellite

Ground track
Ground track

The orbit data is extracted from the following two-line orbital elements,

1 45117U 19071G   21335.32429697  .00012858  00000-0  33978-3 0  9999
2 45117  51.6406 304.8291 0009164 170.1801 189.9364 15.38739720102858
Epoch (UTC): 01 December 2021 07:46:59
Eccentricity: 0.0009164
inclination: 51.6406°
perigee height: 443 km
apogee height: 456 km
right ascension of ascending node: 304.8291°
argument of perigee: 170.1801°
revolutions per day: 15.38739720
mean anomaly at epoch: 189.9364°
orbit number at epoch: 10285

The dashed part of the orbit path shows where the satellite is in the earth's shadow,  

DLR